Погода в Элии

Греция     40°08′50″N   23°44′00″E
темп.,
°C
ветер,
м/с
пор.,
м/с
влажн.,
%
обл.,
%
осадки,
мм/ч
давл.,
гПа
погр.,
м
2 марта, вт
вт223:00+9св897975 0.4 1031896
02:00+9св9116180 0.8 10331190
05:00+9всв89610 0.0 1033942
08:00+8всв87632 0.0 10341092
11:00+9св235661 0.0 10341035
14:00+9зюз447466 0.2 1032703
17:00+10зюз557212 0.1 1031492
20:00+9ю33706 0.1 1032470
3 марта, ср
ср323:00+9ю22710 0.0 1032317
02:00+9з11710 0.0 1032255
05:00+8с22730 0.0 1031135
08:00+9ссв22710 0.0 1032163
11:00+11ю00590 0.0 1031221
14:00+12зюз32540 0.0 1030266
17:00+13зюз33490 0.0 1029297
20:00+12юз12510 0.0 1030226
4 марта, чт
чт423:00+11юз11540 0.0 1029169
02:00+11юз11540 0.0 1029168
05:00+10сз01580 0.0 102791
08:00+10всв01640 0.0 1026114
11:00+12юз12640 0.0 1025352
14:00+13ююз33660 0.0 1022421
17:00+13ююз33680 0.0 1020415
20:00+12ююз34730 0.0 1020263
5 марта, пт
пт523:00+12ююз23700 0.0 1020256
02:00+11ююз11700 0.0 1019183
05:00+11ссв117426 0.0 101893
08:00+11ссв227416 0.0 1018100
11:00+13св226915 0.0 1017270
14:00+13в227440 0.0 1015266
17:00+13ююз127093 0.0 1015205
20:00+13ю236689 0.0 1016107
6 марта, сб
сб623:00+13юз0167100 0.0 101662
02:00+13в1165100 0.0 101695
05:00+13юз5671100 0.0 1016360
08:00+13з2364100 0.0 1017264
11:00+14зюз456331 0.0 1018496
14:00+15зюз666316 0.0 1017555
17:00+16з56610 0.0 1018342
20:00+14сз23651 0.0 102143